Printer-friendly version

IAU Minor Planet Center

Minor Planet Center

MPEC 2008-E51 : 2008 EZ5

The following Minor Planet Electronic Circular may be linked-to from your own Web pages, but must not otherwise be redistributed electronically.


Read MPEC 2008-E50 Read MPEC 2008-E52


M.P.E.C. 2008-E51                                Issued 2008 Mar. 5, 13:13 UT

     The Minor Planet Electronic Circulars contain information on unusual
         minor planets and routine data on comets.  They are published
   on behalf of Commission 20 of the International Astronomical Union by the
          Minor Planet Center, Smithsonian Astrophysical Observatory,
                          Cambridge, MA 02138, U.S.A.

             Prepared using the Tamkin Foundation Computer Network

                              MPC@CFA.HARVARD.EDU
          URL http://www.cfa.harvard.edu/iau/mpc.html  ISSN 1523-6714

                                   2008 EZ5

Observations:
     K08E05Z* C2008 03 04.49595 15 19 52.17 -13 14 13.6          19.7 V EE051G96
     K08E05Z  C2008 03 04.50093 15 19 53.50 -13 14 23.8          19.9 V EE051G96
     K08E05Z  C2008 03 04.50593 15 19 54.87 -13 14 34.8          19.2 V EE051G96
     K08E05Z  C2008 03 04.51100 15 19 56.28 -13 14 44.3          19.4 V EE051G96
     K08E05Z  C2008 03 04.53206 15 20 01.96 -13 15 26.6          19.9 V EE051G96
     K08E05Z  C2008 03 04.53263 15 20 02.11 -13 15 27.8          19.8 V EE051G96
     K08E05Z  C2008 03 04.53321 15 20 02.25 -13 15 29.0          19.8 V EE051G96
     K08E05Z  C2008 03 04.53378 15 20 02.47 -13 15 30.3          19.6 V EE051G96
     K08E05Z  C2008 03 04.54421 15 20 06.49 -13 15 25.0          20.2 R EE051474
     K08E05Z  C2008 03 04.54630 15 20 07.09 -13 15 29.4          19.5 R EE051474
     K08E05Z  C2008 03 04.54838 15 20 07.63 -13 15 33.4          18.9 R EE051474
     K08E05Z  C2008 03 04.55926 15 20 10.63 -13 15 56.5          20.0 R EE051474
     K08E05Z  C2008 03 05.21138 15 23 12.99 -13 38 33.0                 EE051J95
     K08E05Z  C2008 03 05.21996 15 23 15.41 -13 38 50.0          19.9 R EE051J95
     K08E05Z  C2008 03 05.51159 15 24 38.37 -13 48 45.1          19.6 V EE051G96
     K08E05Z  C2008 03 05.51608 15 24 39.63 -13 48 54.3          19.6 V EE051G96
     K08E05Z  C2008 03 05.52059 15 24 40.89 -13 49 03.6          19.8 V EE051G96
     K08E05Z  C2008 03 05.52506 15 24 42.12 -13 49 12.7          19.7 V EE051G96

Observer details:
474 Mount John Observatory, Lake Tekapo.  Observer A. C. Gilmore.  Measurer
    P. M. Kilmartin.  1.0-m f/7.7 reflector + CCD.
G96 Mt. Lemmon Survey.  Observer A. Boattini.  Measurers E. C. Beshore,
    A. Boattini, G. J. Garradd, A. R. Gibbs, A. D. Grauer, R. E. Hill,
    R. A. Kowalski, S. M. Larson, R. H. McNaught.  1.5-m reflector + CCD.
J95 Great Shefford.  Observer P. Birtwhistle.  0.40-m f/6.0 Schmidt-Cassegrain
    + CCD.

Orbital elements:
2008 EZ5                                                 Earth MOID = 0.0718 AU
Epoch 2008 May 14.0 TT = JDT 2454600.5                  MPC
M   3.72921              (2000.0)            P               Q
n   0.33452590     Peri.  228.74926     -0.43486544     +0.89968981
a   2.0551785      Node    15.60355     -0.77805393     -0.35410898
e   0.5057296      Incl.    8.13944     -0.45334770     -0.25527452
P   2.95           H   19.3           G   0.15           U   8
Residuals in seconds of arc
080304 G96  0.0   0.3+    080304 G96  0.4-  0.1+    080305 J95  0.3-  0.3-
080304 G96  0.3-  0.2+    080304 G96  0.5+  0.0     080305 J95  0.2+  0.2+
080304 G96  0.1-  0.7-    080304 474  0.0   0.2+    080305 G96  0.1-  0.0
080304 G96  0.4+  0.0     080304 474  0.3+  0.1+    080305 G96  0.1+  0.1+
080304 G96  0.1-  0.2+    080304 474  0.1-  0.3+    080305 G96  0.2+  0.0
080304 G96  0.2-  0.1+    080304 474  0.1-  0.6-    080305 G96  0.0   0.1+

Ephemeris:
2008 EZ5                 a,e,i = 2.06, 0.51, 8                   q = 1.0158
Date    TT    R. A. (2000) Decl.     Delta      r     Elong.  Phase     V
2008 03 05    15 22.22   -13 31.0    0.434    1.227   112.9    48.1    19.7
2008 03 15    16 15.64   -19 37.5    0.369    1.169   109.1    53.5    19.4
2008 03 25    17 23.87   -25 56.2    0.329    1.117   102.7    60.6    19.3
2008 04 04    18 44.67   -30 39.6    0.315    1.073    94.8    68.2    19.3
2008 04 14    20 06.36   -32 18.0    0.327    1.041    87.5    74.3    19.6
2008 04 24    21 16.41   -31 11.0    0.356    1.021    82.4    77.4    19.8
2008 05 04    22 11.08   -28 37.6    0.394    1.016    79.8    77.7    20.0
2008 05 14    22 52.77   -25 38.3    0.436    1.025    79.4    75.8    20.2
2008 05 24    23 24.98   -22 42.1    0.476    1.047    80.7    72.6    20.3
2008 06 03    23 50.20   -20 02.3    0.511    1.082    83.4    68.6    20.4
2008 06 13    00 09.73   -17 45.9    0.538    1.128    87.4    64.1    20.5
2008 06 23    00 24.23   -15 55.5    0.558    1.182    92.6    59.2    20.5
2008 07 03    00 33.78   -14 33.6    0.570    1.242    99.1    54.0    20.5
2008 07 13    00 38.08   -13 41.3    0.576    1.306   106.9    48.1    20.5
2008 07 23    00 36.77   -13 17.0    0.579    1.374   116.2    41.6    20.4
2008 08 02    00 29.57   -13 17.6    0.583    1.443   127.0    34.2    20.3
2008 08 12    00 16.74   -13 35.1    0.594    1.513   139.1    26.0    20.3
2008 08 22    23 59.63   -13 57.1    0.617    1.583   152.0    17.4    20.2
2008 09 01    23 40.56   -14 11.3    0.659    1.653   164.4     9.4    20.1
2008 09 11    23 22.39   -14 08.2    0.722    1.722   170.3     5.6    20.2
2008 09 21    23 07.48   -13 45.1    0.807    1.790   162.7     9.6    20.7
2008 10 01    22 56.98   -13 04.8    0.913    1.857   151.8    14.7    21.3
2008 10 11    22 51.09   -12 11.0    1.039    1.922   141.3    18.9    21.8

Timothy B. Spahr             (C) Copyright 2008 MPC           M.P.E.C. 2008-E51

Read MPEC 2008-E50 Read MPEC 2008-E52


Our Web policy. Index to the CBAT/MPC/ICQ pages.


Valid HTML 4.01!